Location: Hiram
(41.3130°N, 81.1440°W)
Time: 15:57:12
(UTC-04:00)

Iridium 62 - Visible Passes

Search period start: 26 August 2016 00:00
Search period end: 05 September 2016 00:00
Orbit: 776 x 779 km, 86.4° (Epoch: 26 August)

Date Brightness Start Highest point End Pass type
(mag) Time Alt. Az. Time Alt. Az. Time Alt. Az.
26 Aug 8.0 01:49:14 22° NNE 01:49:14 22° NNE 01:51:14 10° NNE visible
26 Aug 7.9 03:29:42 18° NW 03:29:42 18° NW 03:31:30 10° NNW visible
27 Aug 8.4 01:15:56 14° NE 01:15:56 14° NE 01:17:00 10° NNE visible
27 Aug 7.7 02:56:24 23° NNW 02:56:24 23° NNW 02:58:32 10° N visible
28 Aug 7.8 02:23:06 25° N 02:23:06 25° N 02:25:11 10° N visible
29 Aug 8.0 01:49:47 21° NNE 01:49:47 21° NNE 01:51:33 10° NNE visible
29 Aug 8.2 03:30:16 12° NW 03:30:16 12° NW 03:30:58 10° NNW visible
30 Aug 8.3 01:16:28 16° NNE 01:16:28 16° NNE 01:17:36 10° NNE visible
30 Aug 8.1 02:56:57 17° NNW 02:56:57 17° NNW 02:58:21 10° NNW visible
31 Aug 8.1 02:23:37 20° NNW 02:23:37 20° NNW 02:25:13 10° N visible
01 Sep 8.2 01:50:18 19° N 01:50:18 19° N 01:51:45 10° N visible
02 Sep 8.4 01:16:58 16° NNE 01:16:58 16° NNE 01:18:01 10° NNE visible
02 Sep 8.4 02:57:26 12° NNW 02:57:26 12° NNW 02:58:00 10° NNW visible
03 Sep 8.6 00:43:37 11° NNE 00:43:37 11° NNE 00:43:53 10° NNE visible
03 Sep 8.3 02:24:06 15° NNW 02:24:06 15° NNW 02:25:08 10° NNW visible
04 Sep 8.4 01:50:45 17° N 01:50:45 17° N 01:51:51 10° N visible
